Regional Weather Roundup
Issued by NWS

Home | Current Version | Previous Version | Text Only | Print | Product List | Glossary On
Versions: 1 2 3 4 5 6 7 8 9 10 11 12 13 14 15 16 17 18 19 20 21 22 23 24 25 26 27 28 29 30 31 32 33 34 35 36 37 38 39 40 41 42 43 44 45 46 47 48 49
000
ASUS46 KPQR 021510
RWROR

OREGON REGIONAL WEATHER ROUNDUP
NATIONAL WEATHER SERVICE PORTLAND OR
800 AM PDT WED SEP 02 2015

NOTE: "FAIR" INDICATES FEW OR NO CLOUDS BELOW 12,000 FEET WITH
NO SIGNIFICANT WEATHER AND/OR OBSTRUCTIONS TO VISIBILITY.

ORZ001>013-021600-
NORTHWEST OREGON


CITY           SKY/WX    TMP DP  RH WIND       PRES   REMARKS
ASTORIA        CLOUDY    57  55  93 S5        29.89S
NEWPORT        MOSUNNY   59  57  94 S5        29.97R FOG
PORTLAND       CLOUDY    60  56  86 S5        29.92R
VANCOUVER WA   CLOUDY    60  55  83 CALM      29.91R
SCAPPOOSE      MOSUNNY   56  54  93 CALM      29.91R
HILLSBORO      CLOUDY    57  55  93 CALM      29.92R
AURORA         CLOUDY    59  54  83 S6        29.93R
MCMINNVILLE    LGT RAIN  59  54  83 SW7       29.93R
SALEM          CLOUDY    61  54  77 SW8       29.93R
CORVALLIS      MOSUNNY   57  52  82 CALM      29.96R
EUGENE         MOSUNNY   59  55  87 S6        29.96R
$$

ORZ021-028-021600-
SOUTHWEST OREGON


CITY           SKY/WX    TMP DP  RH WIND       PRES   REMARKS
NORTH BEND     CLOUDY    61  61 100 S5        29.97R
BROOKINGS      CLOUDY    60  60 100 CALM      29.98R
ROSEBURG       CLOUDY    60  56  86 E3        29.97R
SEXTON SUMMIT  FOG       49  49 100 CALM      29.99R VSB<1/4
MEDFORD        CLOUDY    60  47  61 N3        29.96R
$$

ORZ014>016-041-021600-
COLUMBIA GORGE


CITY           SKY/WX    TMP DP  RH WIND       PRES   REMARKS
TROUTDALE      CLOUDY    60  56  86 CALM      29.92R
THE DALLES     LGT RAIN  59  53  80 NW12      29.89R
$$

ORZ029>031-041-044-049-050-061>064-502-503-505>511-021600-
EASTERN OREGON


CITY           SKY/WX    TMP DP  RH WIND       PRES   REMARKS
REDMOND        PTSUNNY   54  45  71 NW10      29.92R
BEND           PTSUNNY   54  43  66 CALM      29.93R
PRINEVILLE     CLOUDY    57  46  67 NW12      29.92R
KLAMATH FALLS  MOSUNNY   48  42  80 SE3       29.98S
LAKEVIEW       PTSUNNY   54  36  50 S6        30.00R
HERMISTON      CLOUDY    63  46  54 SW13G24   29.85R
PENDLETON      CLOUDY    60  45  57 SW7       29.88R
JOHN DAY       CLOUDY    58  43  57 CALM      29.92S
MEACHAM        CLOUDY    50  43  77 CALM      29.93R
LA GRANDE      CLOUDY    63  39  42 W6        29.89R
BAKER CITY     CLOUDY    56  45  66 SW3       29.91R
BURNS          CLOUDY    56  31  38 CALM      29.95R
ROME             N/A     68  33  27 S8        29.94R
ONTARIO        CLOUDY    59  48  67 CALM      29.87R
$$



USA.gov is the U.S. government's official web portal to all federal, state and local government web resources and services.